THORAD DELTA 1 DEB

基本信息
目录编号:
8299
目录名称:
THORAD DELTA 1 DEB
国际标识:
1974-089BG
轨道中心:
EARTH
物体状态:
在轨
发射日期:
1974-11-15 UTC
轨道信息
数据来源: 国际轨道数据
星历时间: 2026-07-27T19:12:23+0800
半长轴: 7316.15km
偏心率: 0.0306811
轨道倾角: 102.057°
近地点辐角: 349.221°
升交点赤经: 33.663°
平近点角: 10.246°
近地点: 713.545km
远地点: 1162.481km
周期: 103.797分钟
每日圈数: 13.873273
详细信息
发射场:
AFWTR
轨道高度:
LEO
数据来源:
AOE Integration Group
参考系:
TEME
时间系统:
UTC
历元类型:
SGP4
2D轨道图
3D轨道图
轨道高度分析图
轨道倾角分析图
轨道综合分析图
查看轨道综合分析图